Probability
0 0 0 0 0 0 0 0 0 0 0 0 0 0 0 0 0 0 0 0 0 0 0 0 0 0 0 0 0 0 0 0 0 0 0 0 0 0 0 0 0 0 0 0
0 0 0 0 0 0 0 0 0 0 0 0 0 0 0 0 0 0 0 0 0 0 0 0 0 0 0 0 0 0 0 0 0 0 0 0 0 0 0 0 0 0 0 0
0 0 0 0 0 0 0 0 0 0 0 0 0 0 0 0 0 0 0 0 0 0 0 0 0 0 0 0 0 0 0 0 0 0 0 0 0 0 0 0 0 0 0 0
0 0 0 0 0 0 0 0 0 0 0 0 0 0 0 0 0 0 0 0 0 0 0 0 0 0 0 0 0 0 0 0 0 0 0 0 0 0 0 0 0 0 0 0
0 0 0 0 0 0 0 0 0 0 0 0 0 0 0 0 0 0 0 0 0 0 0 0 0 0 0 0 0 0 0 0 0 0 0 0 0 0 0 0 0 0 0 0
0 0 0 0 0 0 0 0 0 0 0 0 0 0 0 0 0 0 0 0 0 0 0 0 0 0 0 0 0 0 0 0 0 0 0 0 0 0 0 0 0 0 0 0
0 0 0 0 0 0 0 0 0 0 0 0 0 0 0 0 0 0 0 0 0 0 0 0 0 0 0 0 0 0 0 0 0 0 0 0 0 0 0 0 0 0 0 0
0 0 0 0 0 0 0 0 0 0 0 0 0 0 0 0 0 0 0 0 0 0 0 0 0 0 0 0 0 0 0 0 0 0 0 0 0 0 0 0 0 0 0 0
0 0 0 0 0 0 0 0 0 0 0 0 0 0 0 0 0 0 0 0 0 0 0 0 0 0 0 0 0 0 0 0 0 0 0 0 0 0 0 0 0 0 0 0
0 0 0 0 0 0 0 0 0 0 0 0 0 0 0 0 0 0 0 0 0 0 0 0 0 0 0 0 0 0 0 0 0 0 0 0 0 0 0 0 0 0 0 0
0 0 0 0 0 0 0 0 0 0 0 0 0 0 0 0 0 0 0 0 0 0 0 0 0 0 0 0 0 0 0 0 0 0 0 0 0 0 0 0 0 0 0 0
0 0 0 0 0 0 0 0 0 0 0 0 0 0 0 0 0 0 0 0 0 0 0 0 0 0 0 0 0 0 0 0 0 0 0 0 0 0 0 0 0 0 0 0
0 0 0 0 0 0 0 0 0 0 0 0 0 0 0 0 0 0 0 0 0 0 0 0 0 0 0 0 0 0 0 0 0 0 0 0 0 0 0 0 0 0 0 0
0 0 0 0 0 0 0 0 0 0 0 0 0 0 0 0 0 0 0 0 0 0 0 0 0 0 0 0 0 0 0 0 0 0 0 0 0 0 0 0 0 0 0 0
0 0 0 0 0 0 0 0 0 0 0 0 0 0 0 0 0 0 0 0 0 0 0 0 0 0 0 0 0 0 0 0 0 0 0 0 0 0 0 0 0 0 0 0
0 0 0 0 0 0 0 0 0 0 0 0 0 0 0 0 0 0 0 0 0 0 0 0 0 0 0 0 0 0 0 0 0 0 0 0 0 0 0 0 0 0 0 0
0 0 0 0 0 0 0 0 0 0 0 0 0 0 0 0 0 0 0 0 0 0 0 0 0 0 0 0 0 0 0 0 0 0 0 0 0 0 0 0 0 0 0 0
0 0 0 0 0 0 0 0 0 0 0 0 0 0 0 0 0 0 0 0 0 0 0 0 0 0 0 0 0 0 0 0 0 0 0 0 0 0 0 0 0 0 0 0
0 0 0 0 0 0 0 0 0 0 0 0 0 0 0 0 0 0 0 0 0 0 0 0 0 0 0 0 0 0 0 0 0 0 0 0 0 0 0 0 0 0 0 0
0 0 0 0 0 0 0 0 0 0 0 0 0 0 0 0 0 0 0 0 0 0 0 0 0 0 0 0 0 0 0 0 0 0 0 0 0 0 0 0 0 0 0 0
0 0 0 0 0 0 0 0 0 0 0 0 0 0 0 0 0 0 0 0 0 0 0 0 0 0 0 0 0 0 0 0 0 0 0 0 0 0 0 0 0 0 0 0
0 0 0 0 0 0 0 0 0 0 0 0 0 0 0 0 0 0 0 0 0 0 0 0 0 0 0 0 0 0 0 0 0 0 0 0 0 0 0 0 0 0 0 0
0 0 0 0 0 0 0 0 0 0 0 0 0 0 0 0 0 0 0 0 0 0 0 0 0 0 0 0 0 0 0 0 0 0 0 0 0 0 0 0 0 0 0 0
0 0 0 0 0 0 0 0 0 0 0 0 0 0 0 0 0 0 0 0 0 0 0 0 0 0 0 0 0 0 0 0 0 0 0 0 0 0 0 0 0 0 0 0
0 0 0 0 0 0 0 0 0 0 0 0 0 0 0 0 0 0 0 0 0 0 0 0 0 0 0 0 0 0 0 0 0 0 0 0 0 0 0 0 0 0 0 0
0 0 0 0 0 0 0 0 0 0 0 0 0 0 0 0 0 0 0 0 0 0 0 0 0 0 0 0 0 0 0 0 0 0 0 0 0 0 0 0 0 0 0 0
Height
5657 5656 5653 5651 5650 5649 5647 5646 5645 5644 5642 5642 5642 5642 5641 5641 5642 5644 5646 5650 5652 5656 5660 5664 5668 5673 5678 5684 5691 5697 5705 5711 5717 5723 5730 5737 5745 5751 5757 5763 5769 5774 5779 5783
5656 5653 5651 5649 5647 5646 5645 5644 5643 5642 5641 5640 5640 5640 5640 5639 5640 5641 5643 5645 5647 5650 5653 5657 5661 5665 5670 5677 5683 5690 5696 5701 5708 5715 5721 5728 5735 5742 5749 5754 5759 5764 5769 5774
5653 5652 5649 5647 5646 5645 5643 5642 5642 5641 5640 5639 5639 5640 5638 5638 5637 5638 5640 5641 5643 5645 5647 5650 5654 5658 5663 5669 5675 5682 5688 5694 5700 5707 5712 5718 5725 5732 5738 5744 5750 5756 5761 5765
5651 5650 5648 5646 5644 5643 5642 5641 5640 5640 5639 5639 5639 5638 5638 5636 5636 5636 5637 5638 5639 5640 5642 5645 5648 5652 5657 5663 5669 5674 5680 5686 5692 5698 5703 5710 5716 5723 5729 5735 5741 5746 5751 5756
5649 5648 5646 5645 5643 5641 5641 5640 5640 5639 5639 5639 5638 5637 5637 5635 5635 5635 5635 5636 5637 5638 5639 5641 5644 5648 5652 5657 5662 5668 5673 5678 5683 5689 5694 5700 5707 5714 5719 5725 5731 5736 5741 5746
5648 5646 5645 5644 5642 5641 5640 5640 5639 5639 5638 5639 5638 5636 5636 5634 5633 5633 5633 5633 5634 5635 5636 5638 5641 5645 5649 5652 5657 5661 5666 5670 5674 5679 5685 5691 5697 5703 5709 5715 5721 5726 5731 5736
5647 5646 5644 5643 5641 5640 5640 5640 5640 5638 5638 5638 5637 5635 5635 5633 5632 5631 5631 5631 5632 5633 5634 5636 5638 5642 5645 5648 5651 5655 5659 5662 5667 5671 5677 5682 5688 5694 5699 5705 5710 5715 5720 5725
5646 5645 5644 5642 5641 5640 5639 5640 5640 5639 5638 5638 5636 5635 5635 5632 5631 5630 5630 5629 5630 5631 5632 5634 5635 5638 5640 5643 5646 5648 5651 5655 5659 5663 5668 5673 5679 5684 5689 5694 5699 5704 5709 5714
5645 5644 5643 5642 5641 5641 5640 5640 5640 5640 5639 5638 5636 5635 5634 5632 5631 5630 5629 5628 5628 5629 5630 5632 5633 5635 5636 5638 5640 5642 5645 5648 5651 5656 5661 5666 5671 5675 5680 5685 5689 5694 5698 5702
5644 5644 5644 5643 5642 5642 5642 5641 5641 5640 5639 5638 5637 5635 5634 5632 5631 5630 5629 5629 5629 5628 5629 5630 5631 5631 5632 5634 5636 5637 5639 5642 5645 5649 5654 5659 5663 5667 5671 5675 5679 5683 5687 5691
5644 5644 5644 5644 5643 5643 5643 5642 5641 5640 5639 5638 5637 5638 5634 5632 5631 5630 5629 5629 5629 5628 5628 5628 5628 5629 5629 5630 5632 5633 5635 5637 5640 5643 5647 5651 5654 5658 5661 5665 5669 5672 5676 5680
5644 5645 5644 5644 5644 5643 5643 5643 5642 5642 5641 5639 5637 5640 5634 5633 5631 5630 5629 5628 5627 5627 5627 5626 5626 5626 5626 5626 5627 5628 5629 5632 5635 5638 5641 5644 5646 5649 5652 5655 5658 5662 5666 5669
5644 5645 5645 5645 5647 5645 5644 5643 5642 5642 5641 5639 5638 5640 5635 5633 5632 5630 5629 5628 5627 5626 5626 5625 5624 5623 5623 5623 5623 5623 5624 5626 5629 5631 5634 5636 5638 5640 5643 5646 5650 5653 5656 5660
5644 5645 5646 5646 5645 5645 5644 5644 5643 5642 5641 5640 5638 5637 5635 5633 5632 5631 5629 5628 5627 5625 5625 5624 5622 5621 5621 5620 5620 5620 5620 5621 5623 5625 5627 5629 5630 5632 5635 5637 5640 5643 5646 5649
5644 5645 5645 5645 5645 5645 5645 5644 5643 5642 5641 5640 5639 5636 5635 5633 5632 5630 5629 5628 5626 5625 5623 5622 5620 5619 5619 5618 5617 5617 5617 5617 5618 5619 5620 5621 5622 5624 5626 5628 5631 5634 5636 5638
5644 5645 5645 5645 5645 5645 5645 5644 5643 5642 5641 5640 5638 5637 5635 5633 5631 5630 5628 5627 5625 5623 5621 5620 5618 5617 5616 5615 5614 5613 5612 5612 5612 5613 5613 5613 5614 5616 5617 5619 5621 5624 5626 5627
5644 5645 5645 5646 5645 5645 5645 5645 5644 5643 5641 5640 5638 5637 5635 5633 5631 5630 5628 5626 5624 5622 5620 5618 5616 5615 5614 5612 5611 5609 5608 5607 5606 5606 5605 5605 5606 5607 5609 5611 5612 5614 5616 5617
5644 5644 5645 5645 5646 5645 5647 5644 5644 5642 5641 5640 5638 5636 5634 5632 5631 5629 5626 5624 5622 5620 5618 5616 5613 5612 5610 5608 5606 5604 5602 5601 5599 5598 5597 5597 5597 5598 5599 5601 5602 5604 5605 5606
5643 5644 5644 5645 5644 5645 5645 5643 5642 5642 5640 5639 5637 5635 5633 5631 5629 5627 5625 5622 5620 5617 5615 5612 5610 5608 5605 5603 5600 5598 5595 5593 5591 5589 5588 5587 5587 5588 5589 5590 5591 5593 5594 5595
5642 5643 5644 5643 5643 5643 5645 5643 5641 5641 5639 5638 5636 5634 5632 5629 5628 5626 5623 5620 5617 5615 5612 5608 5605 5602 5600 5597 5594 5591 5588 5585 5583 5581 5579 5578 5577 5577 5579 5580 5581 5582 5583 5584
5640 5641 5642 5642 5641 5642 5642 5641 5640 5640 5639 5636 5634 5632 5630 5627 5625 5623 5620 5617 5614 5611 5608 5605 5602 5598 5595 5591 5588 5585 5581 5578 5575 5572 5570 5568 5567 5568 5568 5569 5570 5571 5572 5573
5638 5639 5639 5639 5640 5642 5639 5638 5638 5638 5635 5633 5632 5630 5627 5625 5622 5620 5617 5614 5611 5608 5605 5602 5598 5594 5590 5587 5583 5579 5574 5570 5567 5564 5561 5559 5558 5558 5558 5559 5559 5560 5561 5561
5636 5637 5637 5638 5640 5638 5636 5636 5635 5634 5632 5631 5629 5627 5625 5622 5619 5617 5614 5611 5608 5605 5602 5598 5594 5589 5585 5581 5576 5572 5568 5563 5559 5556 5553 5551 5550 5549 5548 5549 5549 5549 5549 5548
5633 5633 5633 5634 5634 5634 5633 5632 5631 5630 5629 5627 5626 5624 5621 5619 5616 5613 5610 5607 5604 5601 5597 5593 5589 5584 5580 5575 5570 5565 5561 5556 5552 5549 5546 5543 5541 5540 5539 5539 5538 5537 5537 5536
5629 5629 5629 5629 5630 5629 5629 5628 5627 5626 5625 5623 5621 5619 5617 5614 5612 5609 5606 5603 5600 5596 5593 5588 5584 5579 5574 5569 5564 5559 5554 5550 5545 5542 5538 5535 5532 5530 5528 5527 5527 5526 5525 5524
5624 5624 5624 5625 5625 5625 5625 5623 5622 5621 5620 5618 5616 5614 5612 5609 5606 5603 5600 5597 5594 5590 5586 5582 5577 5572 5567 5562 5557 5552 5547 5543 5538 5534 5531 5527 5524 5521 5519 5517 5516 5514 5513 5512
Wind_Speed
12 12 11 11 9 8 8 7 7 8 10 11 11 10 11 15 17 19 24 28 31 34 35 38 40 44 49 50 52 52 51 53 55 56 57 60 57 55 53 52 53 53 51 50
9 9 9 7 6 6 5 5 5 5 7 8 7 6 7 11 14 15 18 22 25 28 32 35 37 41 45 48 48 51 51 52 53 54 55 58 58 55 54 52 53 52 51 52
7 7 7 6 5 4 5 4 4 4 4 4 4 6 8 9 11 12 14 17 20 23 27 32 34 36 40 42 44 46 49 50 51 51 52 55 57 55 53 53 52 52 51 51
5 5 5 5 5 4 4 3 3 2 2 1 2 2 4 6 8 10 12 14 16 19 23 27 30 34 36 37 39 41 43 45 48 51 51 52 53 54 53 52 52 52 51 49
5 4 4 4 4 3 2 1 1 1 1 2 1 2 1 5 7 9 10 12 14 16 18 22 26 30 32 34 36 39 40 41 45 48 49 51 52 53 53 53 52 52 52 50
3 3 3 4 5 4 2 1 1 0 1 1 1 3 3 4 4 6 7 9 11 13 15 17 22 27 28 29 33 37 38 40 43 45 47 49 51 52 52 52 52 52 53 52
1 2 3 3 4 4 3 2 2 1 1 0 2 3 3 3 3 3 5 5 7 10 11 13 16 21 25 27 29 32 35 37 39 41 44 46 48 48 49 51 52 52 52 52
1 2 3 4 4 5 4 3 3 3 2 1 2 3 3 3 2 2 2 3 4 7 8 10 12 16 19 23 27 28 30 32 34 37 39 43 43 44 45 46 48 51 51 52
2 3 4 6 7 7 7 6 5 5 4 3 2 3 2 3 3 1 0 2 3 5 6 8 10 12 15 18 21 24 27 29 32 33 35 38 40 42 42 44 46 49 51 51
3 4 5 7 8 8 8 8 7 6 5 4 5 4 4 4 4 3 1 1 0 2 3 6 9 11 13 15 19 22 23 24 26 28 31 35 39 41 41 43 44 47 49 49
4 5 6 7 7 7 8 8 7 6 6 6 7 7 7 7 6 5 4 2 1 1 2 5 7 9 12 14 16 19 20 22 23 25 27 31 36 39 41 43 45 45 45 46
5 6 6 6 6 6 7 7 7 6 6 7 7 7 9 8 8 7 7 5 2 1 3 5 6 8 10 12 14 16 18 20 21 23 25 28 30 34 37 38 40 42 42 42
6 6 6 7 6 6 6 6 7 6 5 6 7 7 7 7 7 7 8 7 6 3 2 3 5 6 7 9 11 14 15 18 19 19 21 23 26 29 32 34 37 38 40 41
6 6 6 6 6 5 5 6 6 6 6 5 6 6 7 8 7 7 8 9 8 6 5 5 5 5 6 7 8 10 12 14 17 18 20 21 23 25 28 32 34 36 38 39
6 6 5 5 5 4 4 4 5 6 6 6 6 6 7 8 8 8 8 9 9 8 7 7 6 7 8 8 9 11 12 14 15 17 20 21 22 23 26 29 31 35 36 38
6 5 5 5 4 4 4 3 4 5 6 6 6 6 7 8 8 8 8 9 9 9 8 8 7 8 8 9 11 12 12 14 17 19 20 21 22 23 24 26 27 30 33 36
7 5 5 4 3 4 4 3 2 3 4 5 6 6 6 7 7 8 8 9 9 10 9 9 8 9 9 10 11 13 14 15 17 19 20 21 22 24 26 28 29 31 32 34
7 6 4 3 3 3 2 1 1 2 4 5 6 6 6 6 7 8 9 9 10 11 11 11 11 11 12 13 14 15 17 18 20 22 23 24 24 26 28 30 31 33 34 35
6 6 5 4 3 3 2 1 1 2 4 5 6 6 7 7 7 8 9 11 12 13 14 14 15 15 16 16 17 18 20 21 23 24 25 26 28 29 30 31 32 33 35 36
7 6 5 4 4 3 2 2 2 3 4 5 6 7 8 9 9 9 10 11 13 14 15 17 18 18 19 19 19 20 21 23 24 25 26 28 29 30 31 32 32 34 35 37
9 8 7 6 5 5 4 3 4 4 5 6 7 8 9 10 11 12 12 13 14 16 17 18 18 19 20 21 21 22 23 25 25 26 26 27 28 29 30 31 32 34 35 36
9 9 9 8 7 7 6 6 6 6 7 7 8 10 11 12 13 13 14 15 16 18 19 20 20 20 22 23 23 24 25 26 26 26 26 27 28 30 31 32 34 35 35 34
10 10 10 10 9 9 8 9 9 9 9 9 10 11 13 14 14 15 16 17 18 19 21 22 23 24 24 25 26 26 26 26 26 26 27 28 29 29 31 32 34 35 36 36
12 12 12 11 11 11 11 11 11 11 11 11 12 13 14 15 16 17 18 18 20 21 22 24 25 26 27 27 27 28 28 27 27 26 26 26 28 30 31 32 32 33 35 35
14 14 14 14 13 13 13 13 13 14 14 14 14 15 16 17 18 18 20 20 22 23 24 26 27 29 29 30 30 30 29 29 29 28 28 28 29 30 31 32 33 34 34 35
16 16 16 16 16 15 15 15 15 15 16 16 17 17 18 19 20 21 22 23 24 25 26 28 29 30 31 31 31 31 31 31 30 30 30 30 31 31 32 33 34 34 35 35
Wind_Direction
302 306 309 306 300 289 286 284 283 275 271 270 262 252 245 245 244 243 238 234 235 234 231 228 228 228 226 225 222 221 221 221 221 223 225 226 227 228 229 229 229 230 232 233
311 319 319 311 308 301 303 302 299 289 286 279 260 241 242 243 243 244 239 235 240 239 233 229 228 226 226 224 223 223 223 223 223 225 226 227 227 229 229 229 230 230 232 233
315 323 326 322 321 319 314 315 314 299 292 278 262 252 256 255 247 244 240 239 242 240 238 237 234 231 229 227 226 224 224 225 226 226 226 227 227 226 227 229 230 231 232 233
307 316 332 343 342 333 324 317 313 290 271 231 230 251 246 251 245 245 242 242 241 241 240 239 238 236 232 231 228 224 224 227 229 230 230 229 229 228 228 229 230 231 231 232
309 317 340 357 2 0 344 332 321 264 218 188 241 308 261 253 245 248 245 245 246 241 237 237 238 235 234 235 234 229 229 228 229 229 230 230 230 230 231 231 232 233 231 232
317 343 353 11 25 26 18 27 49 214 218 212 318 306 306 275 259 248 244 243 244 236 234 235 238 234 233 235 235 234 233 232 231 231 232 232 232 232 233 233 233 233 232 233
3 16 17 23 32 35 40 57 70 111 175 143 322 310 319 306 287 251 242 243 235 229 230 236 242 240 239 238 237 235 233 232 232 231 232 232 231 232 233 234 234 233 233 236
72 47 46 53 63 60 59 73 82 96 99 54 346 328 338 359 352 280 253 251 240 231 230 236 241 243 244 245 242 239 238 236 235 233 233 231 231 233 233 234 235 234 235 236
97 80 70 71 79 77 78 85 91 93 86 57 19 357 6 18 25 30 303 268 253 239 236 240 247 248 247 249 246 244 241 240 238 235 235 234 233 234 236 237 238 238 237 238
120 103 90 87 88 84 81 86 92 85 72 61 51 47 48 42 42 44 80 70 178 255 257 257 256 256 259 256 252 249 243 241 240 238 238 238 237 238 240 240 239 238 237 237
126 110 106 102 96 92 87 87 84 76 67 61 58 56 55 53 47 47 49 86 143 236 275 280 266 263 263 257 254 254 249 245 242 241 240 241 243 242 242 242 242 241 239 238
130 118 116 112 106 97 89 84 82 79 70 64 58 52 55 56 53 51 49 39 48 284 268 273 267 269 270 265 261 260 256 249 246 246 246 245 244 243 243 244 244 242 240 240
136 123 117 118 111 103 90 82 77 74 67 62 55 50 50 52 47 45 44 35 31 30 342 319 295 284 279 275 269 266 259 251 248 248 249 248 247 245 244 242 241 242 243 244
144 136 126 122 118 108 94 79 67 61 57 54 48 49 48 43 40 40 34 27 22 16 3 350 335 321 299 285 283 281 270 259 253 251 252 251 251 249 246 242 240 243 244 246
147 139 133 127 127 121 101 80 66 56 49 45 44 46 42 38 32 27 21 18 15 6 350 345 339 331 318 300 296 293 280 268 262 261 260 257 257 253 246 242 241 243 246 246
160 147 135 132 124 128 117 90 64 47 36 38 41 38 33 30 27 21 12 8 6 3 350 341 335 333 325 310 298 292 284 270 265 264 265 262 257 252 246 244 244 245 246 245
172 164 148 133 129 128 130 116 72 37 26 26 24 17 13 17 15 10 4 0 355 353 346 341 333 327 322 312 300 294 290 279 270 268 265 262 259 253 249 248 249 248 249 248
177 176 171 158 152 156 146 141 59 20 13 12 11 6 359 354 356 357 354 352 348 345 340 336 328 322 315 309 305 299 294 288 282 276 270 266 261 256 252 252 253 252 253 252
189 189 192 189 183 181 202 246 310 341 350 355 356 353 347 344 343 340 339 340 338 337 334 331 325 321 315 308 303 300 297 294 288 281 276 271 265 259 256 257 257 256 254 253
205 210 216 218 215 220 234 259 300 325 332 332 337 340 341 340 339 337 334 335 334 336 335 332 328 324 319 313 308 303 300 295 290 285 280 276 269 263 258 258 258 257 257 256
219 224 231 234 237 245 256 270 291 309 319 320 328 332 334 334 334 334 330 329 330 333 333 333 329 325 320 316 312 308 303 298 293 288 283 279 273 266 261 259 259 259 260 259
225 230 235 240 246 251 260 272 284 297 306 312 319 324 327 328 328 329 328 327 329 330 329 328 326 324 319 316 312 309 306 302 297 291 287 282 277 271 266 263 261 261 262 260
232 238 243 246 252 259 265 273 282 291 299 305 311 317 319 321 321 321 323 324 323 324 325 326 325 322 319 316 313 310 308 306 303 297 291 285 281 275 269 265 266 263 263 262
239 244 248 251 257 262 268 273 280 288 294 299 304 309 313 316 317 317 318 320 321 321 321 321 320 319 318 316 315 315 312 310 307 302 297 290 283 278 275 272 271 269 265 264
246 249 251 253 257 263 270 275 279 284 290 295 299 302 305 309 313 314 315 316 319 320 320 319 317 317 317 317 315 315 313 312 310 306 302 297 290 284 280 277 276 274 272 269
249 252 254 256 258 263 268 274 279 283 287 291 295 299 301 303 306 309 311 313 314 316 318 318 317 316 316 316 316 314 313 312 309 306 303 299 293 288 284 281 278 276 274 273